www.pogodaiklimat.ru

Погода и климат >> Архив погоды >> Индия >> Sagar


ПОГОДА в Sagar

  • Прогноз погоды в Sagar
  • Монитор погоды в Sagar
  • Климат города

АРХИВ ПОГОДЫ в Sagar

Время (UTC), дата Ветер
(напр.,м/с)
 
Видим.   Явления Облачность Т
(С)
Тd
(С)
f
(%)
Тe
(С)
Тes
(С)
Комфортность P
(гПа)
Po
(гПа)
Тmin
(С)
Tmax
(С)
R
(мм)
R24
(мм)
S
(см)
15 11.12 штиль 0 4000 м ясно +15.2 +7.6 60 +15 +15 1015.7 952.4
18 11.12 штиль 0 4000 м ясно +14.4 +5.6 55 +14 +14 1015.9 952.4
21 11.12 штиль 0 4000 м ясно +13.6 +6.0 60 +13 +13 1015.1 951.4
00 12.12 штиль 0 4000 м ясно +13.6 +6.0 60 +13 +13 1015.1 951.4
03 12.12 ЮВ 1 10 км ясно +17.0 +8.9 59 +19 +21 1016.8 953.6 +12.8
06 12.12 штиль 0 10 км ясно +24.4 +9.7 39 +25 +38 комфорт 1014.7 953.3
09 12.12 СЗ 1 10 км ясно +26.0 +5.5 27 +25 +33 комфорт 1011.9 950.9
12 12.12 штиль 0 10 км ясно +21.4 +8.3 43 +23 +23 комфорт 1012.7 950.9 +26.8
15 12.12 СВ 1 4000 м ясно +17.0 +10.6 66 +19 +19 1016.6 953.4
18 12.12 СВ 1 4000 м ясно +14.8 +10.8 77 +16 +16 1017.2 953.6
21 12.12 В 1 4000 м ясно +13.4 +9.7 78 +14 +14 1017.0 953.1
00 13.12 СВ 1 4000 м ясно +12.6 +10.0 84 +13 +13 1017.5 953.4
03 13.12 штиль 0 10 км ясно +14.2 +9.4 73 +14 +17 1019.2 955.4 +10.5
06 13.12 штиль 0 10 км ясно +21.4 +12.2 56 +24 +37 комфорт 1017.8 955.6
09 13.12 штиль 0 10 км 3/3 750 м
[Cu med, cong]
+24.0 +10.5 43 +25 +31 комфорт 1014.6 953.0
12 13.12 штиль 0 10 км ясно +20.0 +10.5 54 +21 +21 комфорт 1016.0 953.5 +25.0
15 13.12 штиль 0 4000 м ясно +15.6 +11.0 74 +15 +15 1019.2 955.7
18 13.12 СВ 1 4000 м ясно +14.0 +10.4 79 +15 +15 1020.2 956.2
21 13.12 штиль 0 4000 м ясно +13.2 +9.9 80 +13 +13 1019.8 955.8
00 14.12 штиль 0 4000 м ясно +11.2 +9.7 90 +11 +11 1020.6 956.1
03 14.12 штиль 0 4000 м дымка ясно +13.0 +10.0 82 +13 +15 1022.6 958.2 +9.2
06 14.12 СВ 1 10 км ясно +19.0 +10.1 56 +21 +32 комфорт 1021.3 958.3
09 14.12 СВ 1 10 км ясно +21.8 +8.4 42 +23 +30 комфорт 1017.5 955.3
12 14.12 штиль 0 10 км ясно +18.4 +10.2 59 +19 +19 1019.2 956.3 +22.5
15 14.12 штиль 0 4000 м ясно +14.4 +10.0 75 +14 +14 1022.3 958.4
18 14.12 штиль 0 4000 м ясно +13.0 +9.3 78 +13 +13 1022.3 957.9
21 14.12 штиль 0 4000 м ясно +12.0 +9.4 84 +11 +11 1021.9 957.3
00 15.12 штиль 0 4000 м ясно +10.6 +9.1 90 +10 +10 1022.8 956.5
03 15.12 В 1 10 км ясно +13.0 +8.8 76 +14 +17 1023.2 958.8 +9.2
06 15.12 В 1 10 км ясно +19.0 +8.8 52 +21 +32 комфорт 1021.4 958.4
09 15.12 штиль 0 10 км ясно +21.4 +7.8 42 +22 +31 комфорт 1018.1 955.9
12 15.12 штиль 0 10 км ясно +17.8 +8.6 55 +18 +18 1019.2 956.1 +22.1
15 15.12 штиль 0 4000 м ясно +13.4 +7.8 69 +13 +13 1012.2 958.1
18 15.12 штиль 0 4000 м ясно +12.2 +7.1 71 +12 +12 1022.5 958.1
21 15.12 штиль 0 4000 м ясно +11.0 +7.0 76 +10 +10 1021.5 956.8
00 16.12 штиль 0 4000 м ясно +9.6 +5.4 75 +9 +9 1021.8 956.9
03 16.12 СВ 1 10 км ясно +13.6 +4.1 53 +15 +17 1022.9 958.8 +7.2
06 16.12 штиль 0 10 км ясно +19.4 +4.9 38 +20 +33 опасность
простуды
1021.4 958.6
09 16.12 В 1 10 км ясно +21.2 +4.4 33 +21 +30 комфорт 1017.2 955.0
12 16.12 штиль 0 10 км ясно +18.4 +6.1 44 +19 +19 1018.1 955.2 +22.2
15 16.12 штиль 0 4000 м ясно +12.0 +6.0 67 +12 +12 1021.1 956.6
18 16.12 штиль 0 4000 м ясно +10.0 +3.5 64 +10 +10 1021.3 956.4
21 16.12 штиль 0 4000 м ясно +9.4 +3.8 68 +9 +9 1020.1 955.2
00 17.12 штиль 0 4000 м ясно +8.8 +3.6 70 +8 +8 1019.9 954.9
03 17.12 штиль 0 10 км ясно +12.4 +3.5 55 +12 +15 1020.8 956.6 +6.0
06 17.12 С 1 10 км ясно +20.0 +4.7 37 +22 +33 комфорт 1018.9 956.2
09 17.12 С 1 10 км 3/0
[Ac trans]
+21.0 +5.7 37 +23 +29 комфорт 1015.6 953.3
12 17.12 штиль 0 10 км 3/0
[Ac trans]
+18.4 +7.1 48 +19 +19 1016.2 953.4 +22.2
15 17.12 штиль 0 4000 м ясно +12.8 +6.0 63 +13 +13 1019.5 955.3
18 17.12 штиль 0 4000 м ясно +11.0 +5.7 70 +11 +11 1019.9 955.2
21 17.12 штиль 0 4000 м ясно +10.4 +5.5 72 +10 +10 1018.8 954.2
00 18.12 штиль 0 4000 м ясно +9.8 +9.1 95 +9 +9 1019.0 954.2
03 18.12 штиль 0 4000 м ясно +13.0 +5.8 62 +13 +16 1020.2 956.0 +8.0
06 18.12 ЮВ 1 10 км ясно +19.4 +9.3 52 +22 +34 комфорт 1018.9 956.2
09 18.12 штиль 0 10 км ясно +22.8 +4.7 31 +23 +32 комфорт 1015.2 953.3
12 18.12 штиль 0 10 км ясно +18.4 +6.1 44 +19 +19 1016.1 953.3 +23.4

 

Местоположение метеостанции Sagar (Madhya Pradesh, Индия): широта 23.85 долгота 78.75 высота над уровнем моря 551 м.

В архиве по умолчанию представлена погода в Sagar за последнюю неделю. Архивные данные за месяц целиком и за предыдущие месяцы, начиная с января 2011 года, Вы можете получить, выбрав интересующий диапазон дат из раскрывающегося списка и нажав кнопку "Ввод!".


*Определитесь, кто Вы:
робот инопланетянин человек

Внимание! Время в таблицах - всемирное. Для получения местного времени необходимо прибавить поправку, которая в Sagar равна 5.5 ч.

Смотрите также архив погоды в соседних городах и на ближайших метеорологических станциях:

Погода в Damoh (Madhya Pradesh, Индия) (71 км)
Погода в Tikamgarh (Madhya Pradesh, Индия) (103 км)
Погода в Narsinghpur (Madhya Pradesh, Индия) (109 км)
Погода в Raisen (Madhya Pradesh, Индия) (111 км)
Погода в Jabalpur (Madhya Pradesh, Индия) (142 км)
Погода в Nowgong (Madhya Pradesh, Индия) (153 км)
Погода в Bhopal (Madhya Pradesh, Индия) (156 км)
Погода в Hoshangabad (Madhya Pradesh, Индия) (156 км)
Погода в Pachmarhi (Madhya Pradesh, Индия) (157 км)
Погода в Guna (Madhya Pradesh, Индия) (170 км)

Пояснения к столбцам:

Ветер - указаны скорость ветра в м/с - средняя за 10 мин, порывы в срок и между сроками (в фигурных скобках) и направление, откуда дует ветер: С - северный, СВ - северо-восточный, В - восточный, ЮВ - юго-восточный, Ю - южный, ЮЗ - юго-западный, З - западный, СЗ - северо-западный.
Видимость - горизонтальная дальность видимости в метрах или километрах. При видимости от 1 до 10 км при отсутствии осадков обычно наблюдается дымка, при ухудшении видимости до 1 км и менее - туман. В сухую погоду видимость может ухудшаться дымом, пылью или мглою.
Явления - указаны атмосферные явления, наблюдавшиеся в срок или в последний час перед сроком; фигурными скобками обозначены явления, наблюдавшиеся между сроками (за 1-3 часа до срока); квадратными скобками обозначены град или гололедные отложения с указанием их диаметра в мм.
Облачность - указаны через наклонную черту общая и нижняя облачность в баллах и высота нижней границы облаков в метрах; квадратными скобками обозначены формы облаков: Ci - перистые, Cs - перисто-слоистые, Cc - перисто-кучевые, Ac - высококучевые, As - высокослоистые, Sc - слоисто-кучевые, Ns - слоисто-дождевые, Cu - кучевые, Cb - кучево-дождевые. Подробнее классификацию облаков см. в Атласе облаков (PDF).
T - Температура воздуха - температура, измеренная на высоте 2 м над землей.
Td - Температура точки росы - температура, при понижении до которой содержащийся в воздухе водяной пар достигнет насыщения.
f - Относительная влажность воздуха - влажноcть воздуха, измеренная на высоте 2 м над землей.
Te - Эффективная температура - температура, которую ощущает одетый по сезону человек в тени. Характеристика душности погоды. При расчете учитывается влияние влажности воздуха и скорости ветра на теплоощущения человека.
Tes - Эффективная температура на солнце - температура, которую ощущает человек, с поправкой на солнечный нагрев. Характеристика знойности погоды. Зависит от высоты солнца над горизонтом, облачности и скорости ветра. Ночью, в пасмурную погоду, а также при ветре 12 м/с и более поправка равна нулю.
P - Атмосферное давление - приведенное к уровню моря атмосферное давление.
Po - Атмосферное давление - измеренное на уровне метеостанции атмосферное давление.
Tmin - Минимальная температура - минимум температуры воздуха на высоте 2 м над землей.
Tmax - Максимальная температура - максимум температуры воздуха на высоте 2 м над землей.
R - Количество осадков - Количество выпавших осадков за период времени, мм. При наведении курсора мыши на число - период времени, за который выпало указанное количество осадков.
R24 - Количество осадков - Количество выпавших осадков за 24 часа, мм.
S - Снежный покров - Высота снежного покрова, см. При наведении курсора мыши на число - состояние снежного покрова и степень покрытия местности в баллах.